Year,Month,Day,Hour,Minute,Value (Times are PST for temperature in C)
2014,10,22,09,53,12.30
2014,10,22,09,54,12.30
2014,10,22,09,55,12.30
2014,10,22,09,56,12.40
2014,10,22,09,57,12.30
2014,10,22,09,58,12.30
2014,10,22,09,59,12.30
2014,10,22,10,00,12.30
2014,10,22,10,01,12.30
2014,10,22,10,02,12.30
2014,10,22,10,03,12.30
2014,10,22,10,04,12.30
2014,10,22,10,05,12.30
2014,10,22,10,06,12.30
2014,10,22,10,07,12.30
2014,10,22,10,08,12.30
2014,10,22,10,09,12.30
2014,10,22,10,10,12.30
2014,10,22,10,11,12.30
2014,10,22,10,12,12.20
2014,10,22,10,13,12.20
2014,10,22,10,14,12.20
2014,10,22,10,15,12.20
2014,10,22,10,16,12.20
2014,10,22,10,17,12.20
2014,10,22,10,18,12.20
2014,10,22,10,19,12.20
2014,10,22,10,20,12.30
2014,10,22,10,21,12.30
2014,10,22,10,22,12.30
2014,10,22,10,23,12.30
2014,10,22,10,24,12.30
2014,10,22,10,25,12.30
2014,10,22,10,26,12.30
2014,10,22,10,27,12.30
2014,10,22,10,28,12.30
2014,10,22,10,29,12.30
2014,10,22,10,30,12.30
2014,10,22,10,31,12.30
2014,10,22,10,32,12.30
2014,10,22,10,33,12.30
2014,10,22,10,34,12.30
2014,10,22,10,35,12.30
2014,10,22,10,36,12.30
2014,10,22,10,37,12.30
2014,10,22,10,38,12.40
2014,10,22,10,39,12.40
2014,10,22,10,40,12.40
2014,10,22,10,41,12.40
2014,10,22,10,42,12.40
2014,10,22,10,43,12.40
2014,10,22,10,44,12.40
2014,10,22,10,45,12.50
2014,10,22,10,46,12.50
2014,10,22,10,47,12.50
2014,10,22,10,48,12.60
2014,10,22,10,49,12.60
2014,10,22,10,50,12.60
2014,10,22,10,51,12.60
2014,10,22,10,52,12.60
2014,10,22,10,53,12.60
2014,10,22,10,54,12.60
2014,10,22,10,55,12.60
2014,10,22,10,56,12.60
2014,10,22,10,57,12.70
2014,10,22,10,58,12.70
2014,10,22,10,59,12.70
2014,10,22,11,00,12.70
2014,10,22,11,01,12.70
2014,10,22,11,02,12.70
2014,10,22,11,03,12.80
2014,10,22,11,04,12.70
2014,10,22,11,05,12.70
2014,10,22,11,06,12.70
2014,10,22,11,07,12.70
2014,10,22,11,08,12.60
2014,10,22,11,09,12.60
2014,10,22,11,10,12.60
2014,10,22,11,11,12.60
2014,10,22,11,12,12.60
2014,10,22,11,13,12.60
2014,10,22,11,14,12.60
2014,10,22,11,15,12.60
2014,10,22,11,16,12.60
2014,10,22,11,17,12.70
2014,10,22,11,18,12.70
2014,10,22,11,19,12.60
2014,10,22,11,20,12.60
2014,10,22,11,21,12.60
2014,10,22,11,22,12.60
2014,10,22,11,23,12.60
2014,10,22,11,24,12.60
2014,10,22,11,25,12.60
2014,10,22,11,26,12.60
2014,10,22,11,27,12.60
2014,10,22,11,28,12.60
2014,10,22,11,29,12.60
2014,10,22,11,30,12.60
2014,10,22,11,31,12.60
2014,10,22,11,32,12.60
2014,10,22,11,33,12.60
2014,10,22,11,34,12.60
2014,10,22,11,35,12.60
2014,10,22,11,36,12.60
2014,10,22,11,37,12.60
2014,10,22,11,38,12.60
2014,10,22,11,39,12.60
2014,10,22,11,40,12.60
2014,10,22,11,41,12.60
2014,10,22,11,42,12.70
2014,10,22,11,43,12.70
2014,10,22,11,44,12.70
2014,10,22,11,45,12.60
2014,10,22,11,46,12.60
2014,10,22,11,47,12.60
2014,10,22,11,48,12.60
2014,10,22,11,49,12.60
2014,10,22,11,50,12.60
2014,10,22,11,51,12.60
2014,10,22,11,52,12.60
2014,10,22,11,53,12.60
2014,10,22,11,54,12.60
2014,10,22,11,55,12.60
2014,10,22,11,56,12.70
2014,10,22,11,57,12.70
2014,10,22,11,58,12.70
2014,10,22,11,59,12.70
2014,10,22,12,00,12.70
2014,10,22,12,01,12.70
2014,10,22,12,02,12.70
2014,10,22,12,03,12.70
2014,10,22,12,04,12.70
2014,10,22,12,05,12.70
2014,10,22,12,06,12.70
2014,10,22,12,07,12.80
2014,10,22,12,08,12.80
2014,10,22,12,09,12.80
2014,10,22,12,10,12.80
2014,10,22,12,11,12.80
2014,10,22,12,12,12.80
2014,10,22,12,13,12.80
2014,10,22,12,14,12.80
2014,10,22,12,15,12.80
2014,10,22,12,16,12.80
2014,10,22,12,17,12.80
2014,10,22,12,18,12.80
2014,10,22,12,19,12.80
2014,10,22,12,20,12.80
2014,10,22,12,21,12.80
2014,10,22,12,22,12.80
2014,10,22,12,23,12.80
2014,10,22,12,24,12.80
2014,10,22,12,25,12.90
2014,10,22,12,26,12.90
2014,10,22,12,27,12.90
2014,10,22,12,28,12.80
2014,10,22,12,29,12.80
2014,10,22,12,30,12.90
2014,10,22,12,31,12.90
2014,10,22,12,32,12.90
2014,10,22,12,33,12.90
2014,10,22,12,34,12.90
2014,10,22,12,35,12.90
2014,10,22,12,36,12.90
2014,10,22,12,37,12.90
2014,10,22,12,38,12.90
2014,10,22,12,39,12.90
2014,10,22,12,40,12.90
2014,10,22,12,41,12.90
2014,10,22,12,42,12.90
2014,10,22,12,43,12.90
2014,10,22,12,44,12.90
2014,10,22,12,45,12.90
2014,10,22,12,46,12.90
2014,10,22,12,47,12.90
2014,10,22,12,48,13.00
2014,10,22,12,49,13.00
2014,10,22,12,50,13.00
2014,10,22,12,51,13.00
2014,10,22,12,52,13.00
2014,10,22,12,53,13.00
2014,10,22,12,54,13.00
2014,10,22,12,55,13.00
2014,10,22,12,56,13.00
2014,10,22,12,57,13.10
2014,10,22,12,58,13.10
2014,10,22,12,59,13.10
2014,10,22,13,00,13.10
2014,10,22,13,01,13.20
2014,10,22,13,02,13.20
2014,10,22,13,03,13.20
2014,10,22,13,04,13.30
2014,10,22,13,05,13.30
2014,10,22,13,06,13.30
2014,10,22,13,07,13.30
2014,10,22,13,08,13.30
2014,10,22,13,09,13.30
2014,10,22,13,10,13.30
2014,10,22,13,11,13.30
2014,10,22,13,12,13.30
2014,10,22,13,13,13.30
2014,10,22,13,14,13.30
2014,10,22,13,15,13.30
2014,10,22,13,16,13.30
2014,10,22,13,17,13.30
2014,10,22,13,18,13.30
2014,10,22,13,19,13.30
2014,10,22,13,20,13.40
2014,10,22,13,21,13.40
2014,10,22,13,22,13.40
2014,10,22,13,23,13.40
2014,10,22,13,24,13.40
2014,10,22,13,25,13.40
2014,10,22,13,26,13.40
2014,10,22,13,27,13.40
2014,10,22,13,28,13.50
2014,10,22,13,29,13.50
2014,10,22,13,30,13.50
2014,10,22,13,31,13.60
2014,10,22,13,32,13.60
2014,10,22,13,33,13.60
2014,10,22,13,34,13.60
2014,10,22,13,35,13.60
2014,10,22,13,36,13.60
2014,10,22,13,37,13.60
2014,10,22,13,38,13.60
2014,10,22,13,39,13.50
2014,10,22,13,40,13.50
2014,10,22,13,41,13.50
2014,10,22,13,42,13.50
2014,10,22,13,43,13.40
2014,10,22,13,44,13.40
2014,10,22,13,45,13.40
2014,10,22,13,46,13.40
2014,10,22,13,47,13.40
2014,10,22,13,48,13.40
2014,10,22,13,49,13.40
2014,10,22,13,50,13.40
2014,10,22,13,51,13.40
2014,10,22,13,52,13.40
2014,10,22,13,53,13.30
2014,10,22,13,54,13.30
2014,10,22,13,55,13.30
2014,10,22,13,56,13.30
2014,10,22,13,57,13.30
2014,10,22,13,58,13.30
2014,10,22,13,59,13.30
2014,10,22,14,00,13.30
2014,10,22,14,01,13.30
2014,10,22,14,02,13.30
2014,10,22,14,03,13.30
2014,10,22,14,04,13.30
2014,10,22,14,05,13.30
2014,10,22,14,06,13.30
2014,10,22,14,07,13.30
2014,10,22,14,08,13.30
2014,10,22,14,09,13.30
2014,10,22,14,10,13.30
2014,10,22,14,11,13.40
2014,10,22,14,12,13.40
2014,10,22,14,13,13.40
2014,10,22,14,14,13.40
2014,10,22,14,15,13.30
2014,10,22,14,16,13.40
2014,10,22,14,17,13.40
2014,10,22,14,18,13.30
2014,10,22,14,19,13.30
2014,10,22,14,20,13.30
2014,10,22,14,21,13.30
2014,10,22,14,22,13.30
2014,10,22,14,23,13.30
2014,10,22,14,24,13.30
2014,10,22,14,25,13.30
2014,10,22,14,26,13.30
2014,10,22,14,27,13.30
2014,10,22,14,28,13.30
2014,10,22,14,29,13.30
2014,10,22,14,30,13.20
2014,10,22,14,31,13.20
2014,10,22,14,32,13.20
2014,10,22,14,33,13.20
2014,10,22,14,34,13.20
2014,10,22,14,35,13.20
2014,10,22,14,36,13.20
2014,10,22,14,37,13.20
2014,10,22,14,38,13.20
2014,10,22,14,39,13.20
2014,10,22,14,40,13.20
2014,10,22,14,41,13.20
2014,10,22,14,42,13.20
2014,10,22,14,43,13.20
2014,10,22,14,44,13.20
2014,10,22,14,45,13.20
2014,10,22,14,46,13.20
2014,10,22,14,47,13.20
2014,10,22,14,48,13.20
2014,10,22,14,49,13.20
2014,10,22,14,50,13.20
2014,10,22,14,51,13.20
2014,10,22,14,52,13.30
2014,10,22,14,53,13.30
2014,10,22,14,54,13.30
2014,10,22,14,55,13.30
2014,10,22,14,56,13.30
2014,10,22,14,57,13.30
2014,10,22,14,58,13.30
2014,10,22,14,59,13.30
2014,10,22,15,00,13.30
2014,10,22,15,01,13.30
2014,10,22,15,02,13.30
2014,10,22,15,03,13.30
2014,10,22,15,04,13.30
2014,10,22,15,05,13.30
2014,10,22,15,06,13.30
2014,10,22,15,07,13.30
2014,10,22,15,08,13.30
2014,10,22,15,09,13.30
2014,10,22,15,10,13.30
2014,10,22,15,11,13.30
2014,10,22,15,12,13.30
2014,10,22,15,13,13.30
2014,10,22,15,14,13.30
2014,10,22,15,15,13.30
2014,10,22,15,16,13.30
2014,10,22,15,17,13.30
2014,10,22,15,18,13.30
2014,10,22,15,19,13.30
2014,10,22,15,20,13.30
2014,10,22,15,21,13.30
2014,10,22,15,22,13.30
